Location: B?lite?ti
(46.2833°N, 22.7333°E)
Time: 04:48:00
(UTC+00:00)

NOSS 3-1 (C) - Pass Details

Date: 24 January 2021
Orbit: 723 x 1485 km, 63.3° (Epoch: 22 February)

Event Time Altitude Azimuth Distance (km) Brightness Sun altitude
Rises 16:23:43 0° 320° (NW) 3,868 7.0 -10.7°
Reaches altitude 10° 16:26:15 10° 325° (NW) 3,014 6.3 -11.1°
Maximum altitude 16:33:32 61° 45° (NE) 1,439 4.1 -12.3°
Drops below altitude 10° 16:42:05 10° 125° (SE) 3,508 6.0 -13.8°
Sets 16:45:14 0° 128° (SE) 4,539 6.6 -14.3°
